{"data":{"norad_id":22195,"intl_designator":"1992-070B","name":"LAGEOS 2","alt_names":[],"object_type":"PAYLOAD","status":"ACTIVE","operator":null,"country":"IT","launch_date":"1992-10-22","launch_site_code":"AFETR","launch_vehicle":null,"mission":null,"orbit_class":"UNKNOWN","rcs_meters":0.3981,"size_class":null,"mass_kg":null,"dimensions":null,"purposes":["science"],"wikipedia_slug":null,"has_3d_model":false,"image_url":null,"decayed_at":null,"tle_current":{"epoch":"2026-08-21T09:32:35.937888Z","epoch_age_seconds":2612110,"freshness":"OLD","line1":"1 22195U 92070B   26233.39763817 -.00000009  00000+0  00000+0 0  9995","line2":"2 22195  52.6389 225.4441 0138023 215.8907 299.2302  6.47294115799646","mean_motion":6.47294115,"eccentricity":0.0138023,"inclination_deg":52.6389,"raan_deg":225.4441,"arg_perigee_deg":215.8907,"mean_anomaly_deg":299.2302,"bstar":0,"rev_number":79964,"period_min":222.46455925217,"perigee_km":5615.8816817146,"apogee_km":5951.6055311023,"semimajor_km":12161.880606408,"source":"CELESTRAK","updated_at":"2026-09-20T09:00:47.281445Z"}}}